Regional Weather Roundup
Issued by NWS Burlington, VT

Current Version | Previous Version | Text Only | Print | Product List | Glossary On
Versions: 1 2 3 4 5 6 7 8 9 10 11 12 13 14 15 16 17 18 19 20 21 22 23 24 25 26 27 28 29 30 31 32 33 34 35 36 37 38 39 40 41 42 43 44 45 46 47 48 49 50
000
ASUS41 KBTV 150130
RWRBTV
VERMONT REGIONAL WEATHER ROUNDUP
NATIONAL WEATHER SERVICE BURLINGTON VT
900 PM EDT SUN SEP 14 2014

NOTE: "FAIR" INDICATES FEW OR NO CLOUDS BELOW 12,000 FEET WITH NO
SIGNIFICANT WEATHER AND/OR OBSTRUCTIONS TO VISIBILITY.

* THESE REPORTS ARE NOT UNDER NWS QUALITY CONTROL AND/OR DO NOT
  REPORT WEATHER SUCH AS PRECIPITATION AND FOG.

VTZ001>019-150200-
_____VERMONT_____


CITY           SKY/WX    TMP DP  RH WIND       PRES   REMARKS
BURLINGTON     MOCLDY    46  41  82 N3        30.27R
MONTPELIER     CLEAR     38  36  92 CALM      30.29S
MORRISVILLE    CLEAR     40  37  89 CALM      30.28S
ST. JOHNSBURY*   N/A     42  40  92 MISG      30.25F
MIDDLEBURY*    FAIR      41  41 100 CALM      30.25S
RUTLAND*       CLEAR     43  41  93 SE6       30.24S
SPRINGFIELD    CLEAR     45  43  93 CALM      30.25R
HIGHGATE*      CLOUDY    46  43  89 CALM      30.26F
NEWPORT*       CLOUDY    43  38  84 CALM      30.27F
BENNINGTON     CLEAR     43  40  89 CALM      30.22S
SUTTON*          N/A     37 N/A N/A MISG        N/A
GALLUP MILLS*    N/A     41 N/A N/A MISG        N/A
UNION VILLAGE*   N/A     43 N/A N/A MISG        N/A
MT. MANSFIELD*   N/A     36 N/A N/A NW12        N/A

_____LAKE CHAMPLAIN_____


CITY           SKY/WX    TMP DP  RH WIND       PRES   REMARKS
BURTON ISLAND*   N/A     48  41  76 N1          N/A
COLCHESTER RF*   N/A     50  41  71 NE13        N/A
DIAMOND ISL*     N/A     50  43  76 N13         N/A

$$

NYZ007-026>031-035-052-083-150200-
_____NORTHERN NEW YORK_____


CITY           SKY/WX    TMP DP  RH WIND       PRES   REMARKS
PLATTSBURGH    CLOUDY    48  40  73 N5        30.27S
SARANAC LAKE   CLEAR     36  36 100 N3        30.23R
MASSENA        CLEAR     41  38  89 CALM      30.27S
OGDENSBURG*    CLEAR     45  41  87 CALM      30.25S
PARISHVILLE*     N/A     41 N/A N/A E3          N/A
WATERTOWN      CLEAR     45  39  79 S5        30.25R
FT DRUM        CLEAR     43  41  93 SW2       30.24S
ALBANY         PTCLDY    49  44  83 CALM      30.22S
GLENS FALLS    MOCLDY    48  44  86 CALM      30.23S

$$
NHZ002-005-011-150200-
_____NEW HAMPSHIRE_____


CITY           SKY/WX    TMP DP  RH WIND       PRES   REMARKS
LEBANON        CLEAR     44  39  82 CALM      30.24S
KEENE          PTCLDY    46  37  71 CALM      30.23S
MT WASHINGTON  MOCLDY    37  10  32 W21         N/A
PLYMOUTH       FAIR      41  41 100 CALM      30.24S
WHITEFIELD     CLOUDY    47  39  74 CALM      30.26F

$$

_____REGIONAL QUEBEC LOCATIONS_____


CITY           SKY/WX    TMP DP  RH WIND       PRES   REMARKS
MONTREAL       MOCLDY    46  39  76 W6        30.25F
QUEBEC CITY    CLOUDY    48  41  76 W6        30.22F
SHERBROOKE     CLOUDY    45  43  93 W2        30.26S

_____REGIONAL ONTARIO LOCATIONS_____


CITY           SKY/WX    TMP DP  RH WIND       PRES   REMARKS
OTTAWA         MOCLDY    46  41  81 SE7       30.24S

______KEY______
VSB  - VISIBILITY IN MILES
WCI  - WIND CHILL INDEX
HX   - HEAT INDEX
$$



USA.gov is the U.S. government's official web portal to all federal, state and local government web resources and services.